This is the latest recevied weather packets stored in our database for station/object N9ALD. If no packets are shown the sender has not sent any weather packets the latest 10 day(s).
| Time | Temp. | Humidity | Pressure | Rain* | Wind** | Luminosity | Snow |
|---|---|---|---|---|---|---|---|
| 1777492824 | 16.67° C | 58% | 1009.4 hPa | 0 mm | - | 575 W/m² | - |
| 1777491914 | 17.22° C | 62% | 1009.3 hPa | 0 mm | - | 814 W/m² | - |
| 1777490699 | 17.22° C | 57% | 1009.4 hPa | 0 mm | - | 181 W/m² | - |
| 1777490093 | 17.22° C | 58% | 1009.3 hPa | 0 mm | - | 313 W/m² | - |
| 1777489790 | 17.22° C | 57% | 1009.3 hPa | 0 mm | - | 291 W/m² | - |
| 1777487672 | 16.67° C | 59% | 1009.2 hPa | 0 mm | - | 130 W/m² | - |
| 1777486157 | 16.67° C | 62% | 1008.8 hPa | 0 mm | - | 889 W/m² | - |
| 1777485555 | 16.67° C | 59% | 1008.8 hPa | 0 mm | - | 295 W/m² | - |
| 1777484341 | 17.22° C | 64% | 1009 hPa | 0 mm | - | 891 W/m² | - |
| 1777484036 | 17.22° C | 61% | 1008.8 hPa | 0 mm | - | 925 W/m² | - |
| 1777483734 | 17.22° C | 64% | 1008.9 hPa | 0 mm | - | 903 W/m² | - |
| 1777483124 | 17.22° C | 65% | 1008.8 hPa | 0 mm | - | 842 W/m² | - |
| 1777482822 | 16.67° C | 67% | 1008.8 hPa | 0 mm | - | 831 W/m² | - |
| 1777482518 | 16.67° C | 67% | 1008.7 hPa | 0 mm | - | 784 W/m² | - |
| 1777482216 | 16.67° C | 67% | 1008.7 hPa | 0 mm | - | 806 W/m² | - |
| 1777480700 | 16.11° C | 73% | 1009.1 hPa | 0 mm | - | 390 W/m² | - |
| 1777480397 | 16.67° C | 71% | 1008.9 hPa | 0 mm | - | 205 W/m² | - |
| 1777480092 | 16.67° C | 70% | 1008.9 hPa | 0 mm | - | 854 W/m² | - |
| 1777479487 | 16.11° C | 72% | 1008.9 hPa | 0 mm | - | 774 W/m² | - |
| 1777478880 | 15.56° C | 75% | 1009 hPa | 0 mm | - | 774 W/m² | - |
| 1777478274 | 15° C | 76% | 1009.1 hPa | 0 mm | - | 691 W/m² | - |
| 1777477970 | 15° C | 75% | 1009.2 hPa | 0 mm | - | 691 W/m² | - |
| 1777477665 | 15° C | 76% | 1008.9 hPa | 0 mm | - | 659 W/m² | - |
| 1777477363 | 15° C | 78% | 1009.2 hPa | 0 mm | - | 250 W/m² | - |
| 1777477059 | 14.44° C | 81% | 1009 hPa | 0 mm | - | 693 W/m² | - |
* Rain latest hour (hover to see other rain measurements)
** Current wind speed in m/s (hover to see current wind gust speed)